Location: Bittkow
(50.3000°N, 19.0000°E)
Time: 12:32:28
(UTC+00:00)

ADEOS Rocket - Pass Details

Date: 19 September 2020
Orbit: 858 x 1307 km, 98.7° (Epoch: 21 October)

Event Time Altitude Azimuth Distance (km) Brightness Sun altitude
Rises 03:06:11 0° 170° (S) 4,045 6.1 -13.3°
Reaches altitude 10° 03:08:54 10° 172° (S) 3,026 5.5 -12.9°
Maximum altitude 03:15:45 71° 257° (WSW) 1,110 3.1 -11.9°
Drops below altitude 10° 03:21:54 10° 341° (NNW) 2,735 5.3 -10.9°
Sets 03:24:16 0° 344° (NNW) 3,633 6.0 -10.6°
